TimeWEST,TemperatureF,Dew PointF,Humidity,Sea Level PressureIn,VisibilityMPH,Wind Direction,Wind SpeedMPH,Gust SpeedMPH,PrecipitationIn,Events,Conditions,WindDirDegrees,DateUTC
12:00 AM,69.8,46.4,43,30.06,-9999.0,ENE,10.4,-,N/A,,Clear,60,2013-05-31 23:00:00
12:30 AM,68.0,48.2,49,30.06,-9999.0,ENE,6.9,-,N/A,,Clear,60,2013-05-31 23:30:00
1:00 AM,67,48,40,30.01,6,NE,9.2,,,,,50,2013-06-01 00:00:00
1:00 AM,68.0,48.2,49,30.04,-9999.0,NE,9.2,-,N/A,,Clear,50,2013-06-01 00:00:00
1:30 AM,66.2,50.0,56,30.04,-9999.0,NE,4.6,-,N/A,,Clear,50,2013-06-01 00:30:00
2:00 AM,66.2,50.0,56,30.04,-9999.0,NE,5.8,-,N/A,,Clear,50,2013-06-01 01:00:00
2:30 AM,64.4,50.0,59,30.04,-9999.0,NE,2.3,-,N/A,,Clear,40,2013-06-01 01:30:00
3:00 AM,64.4,50.0,59,30.04,-9999.0,Calm,Calm,-,N/A,,Clear,0,2013-06-01 02:00:00
3:30 AM,62.6,50.0,63,30.01,-9999.0,Calm,Calm,-,N/A,,Clear,0,2013-06-01 02:30:00
4:00 AM,63,50,53,29.99,6,Calm,Calm,,,,,,2013-06-01 03:00:00
4:00 AM,62.6,50.0,63,30.01,-9999.0,Calm,Calm,-,N/A,,Clear,0,2013-06-01 03:00:00
4:30 AM,62.6,50.0,63,30.01,-9999.0,Calm,Calm,-,N/A,,Clear,0,2013-06-01 03:30:00
5:00 AM,62.6,50.0,63,30.01,-9999.0,Calm,Calm,-,N/A,,Clear,0,2013-06-01 04:00:00
5:30 AM,62.6,50.0,63,30.01,-9999.0,Calm,Calm,-,N/A,,Clear,0,2013-06-01 04:30:00
6:00 AM,59.0,50.0,72,30.01,-9999.0,Calm,Calm,-,N/A,,Clear,0,2013-06-01 05:00:00
6:30 AM,57.2,50.0,77,30.04,-9999.0,Calm,Calm,-,N/A,,Clear,0,2013-06-01 05:30:00
6:49 AM,57,49,68,30.02,6,Calm,Calm,,,,,,2013-06-01 05:49:00
7:00 AM,57.2,50.0,77,30.04,-9999.0,Calm,Calm,-,N/A,,Clear,0,2013-06-01 06:00:00
7:30 AM,59.0,50.0,72,30.04,-9999.0,Calm,Calm,-,N/A,,Clear,0,2013-06-01 06:30:00
8:00 AM,64.4,50.0,59,30.04,-9999.0,Calm,Calm,-,N/A,,Clear,0,2013-06-01 07:00:00
8:30 AM,66.2,51.8,60,30.04,-9999.0,Calm,Calm,-,N/A,,Clear,0,2013-06-01 07:30:00
9:00 AM,68.0,51.8,56,30.04,-9999.0,Calm,Calm,-,N/A,,Clear,0,2013-06-01 08:00:00
9:30 AM,69.8,50.0,49,30.04,-9999.0,Calm,Calm,-,N/A,,Clear,0,2013-06-01 08:30:00
10:00 AM,72,51,36,29.99,6,Calm,Calm,,,,,,2013-06-01 09:00:00
10:00 AM,71.6,50.0,46,30.04,-9999.0,Calm,Calm,-,N/A,,Clear,0,2013-06-01 09:00:00
10:30 AM,73.4,51.8,47,30.04,-9999.0,Calm,Calm,-,N/A,,Clear,0,2013-06-01 09:30:00
11:00 AM,77.0,50.0,39,30.04,-9999.0,Calm,Calm,-,N/A,,Clear,0,2013-06-01 10:00:00
11:30 AM,78.8,50.0,36,30.04,-9999.0,NE,5.8,-,N/A,,Clear,50,2013-06-01 10:30:00
12:00 PM,80.6,48.2,32,30.04,-9999.0,NE,8.1,-,N/A,,Clear,40,2013-06-01 11:00:00
12:30 PM,82.4,48.2,30,30.04,-9999.0,NE,8.1,-,N/A,,Clear,40,2013-06-01 11:30:00
1:00 PM,84,48,19,29.93,6,East,5.8,,,,Scattered Clouds,80,2013-06-01 12:00:00
1:00 PM,84.2,48.2,29,30.01,6.2,Variable,6.9,-,N/A,,Partly Cloudy,0,2013-06-01 12:00:00
1:30 PM,84.2,46.4,27,30.01,6.2,North,5.8,-,N/A,,Partly Cloudy,10,2013-06-01 12:30:00
2:00 PM,86.0,46.4,25,30.01,6.2,Variable,3.5,-,N/A,,Partly Cloudy,0,2013-06-01 13:00:00
2:30 PM,87.8,46.4,24,29.98,6.2,North,6.9,-,N/A,,Partly Cloudy,10,2013-06-01 13:30:00
3:00 PM,89.6,44.6,21,29.98,6.2,Variable,4.6,-,N/A,,Partly Cloudy,0,2013-06-01 14:00:00
3:30 PM,89.6,44.6,21,29.98,6.2,North,8.1,-,N/A,,Partly Cloudy,350,2013-06-01 14:30:00
4:00 PM,91,41,10,29.85,6,NNW,5.8,,,,Scattered Clouds,340,2013-06-01 15:00:00
4:00 PM,89.6,41.0,18,29.95,6.2,North,6.9,-,N/A,,Partly Cloudy,350,2013-06-01 15:00:00
4:30 PM,91.4,37.4,15,29.95,6.2,North,5.8,-,N/A,,Partly Cloudy,350,2013-06-01 15:30:00
5:00 PM,91.4,35.6,14,29.95,6.2,NW,3.5,-,N/A,,Partly Cloudy,310,2013-06-01 16:00:00
5:30 PM,91.4,35.6,14,29.95,6.2,Variable,2.3,-,N/A,,Partly Cloudy,0,2013-06-01 16:30:00
6:00 PM,91.4,32.0,12,29.95,6.2,NNE,6.9,-,N/A,,Partly Cloudy,30,2013-06-01 17:00:00
6:30 PM,91.4,32.0,12,29.95,6.2,ENE,6.9,-,N/A,,Partly Cloudy,70,2013-06-01 17:30:00
7:00 PM,92,30,5,29.83,6,NE,5.8,,,,Scattered Clouds,40,2013-06-01 18:00:00
7:00 PM,91.4,30.2,11,29.95,6.2,NE,4.6,-,N/A,,Partly Cloudy,40,2013-06-01 18:00:00
7:30 PM,91.4,30.2,11,29.95,6.2,NNE,5.8,-,N/A,,Partly Cloudy,30,2013-06-01 18:30:00
8:00 PM,89.6,28.4,11,29.95,6.2,ENE,5.8,-,N/A,,Partly Cloudy,60,2013-06-01 19:00:00
8:30 PM,87.8,28.4,12,29.95,6.2,East,1.2,-,N/A,,Partly Cloudy,80,2013-06-01 19:30:00
9:00 PM,86.0,32.0,14,29.95,6.2,Calm,Calm,-,N/A,,Partly Cloudy,0,2013-06-01 20:00:00
9:30 PM,86.0,37.4,18,29.95,6.2,NNE,6.9,-,N/A,,Partly Cloudy,30,2013-06-01 20:30:00
10:00 PM,83,49,21,29.88,6,NNE,10.4,,,,Scattered Clouds,30,2013-06-01 21:00:00
10:00 PM,84.2,48.2,29,29.98,6.2,NNE,8.1,19.6,N/A,,Partly Cloudy,30,2013-06-01 21:00:00
10:30 PM,80.6,50.0,34,29.98,6.2,NNE,9.2,-,N/A,,Partly Cloudy,30,2013-06-01 21:30:00
11:00 PM,78.8,50.0,36,29.98,6.2,NE,8.1,-,N/A,,Partly Cloudy,40,2013-06-01 22:00:00
11:30 PM,77.0,50.0,39,29.98,6.2,NNE,3.5,-,N/A,,Partly Cloudy,30,2013-06-01 22:30:00